Location: Jetmore Oil Field
(38.1181°N, 99.9337°W)
Time: 04:39:42
(UTC+00:00)

STARLINK-2733 - Visible Passes

Search period start: 17 October 2021 00:00
Search period end: 27 October 2021 00:00
Orbit: 546 x 548 km, 53.1° (Epoch: 16 October)

Date Brightness Start Highest point End Pass type
(mag) Time Alt. Az. Time Alt. Az. Time Alt. Az.
24 Oct 6.6 11:25:01 10° SSE 11:27:00 13° SE 11:28:59 10° E visible
25 Oct 6.3 11:17:42 10° S 11:20:35 18° SE 11:23:27 10° E visible
26 Oct 5.7 11:10:46 10° S 11:14:10 25° SE 11:17:35 10° ENE visible
